GW3344 Weather Reports


time (UTC)temp
C
wind
direction
speed
KPH
gust
KPH
rain 1hr
cm
rain 24hr
cm
rain mn
cm
humidity
%
barometer
mb
20260509160827 17 187 0.0 4.8 0.00 0.00 0.00 63 1008.9
20260509154825 17 188 0.0 0.0 0.00 0.00 0.00 64 1009.2
20260509153825 16 189 1.6 11.3 0.00 0.00 0.00 67 1009.5
20260509152825 15 125 1.6 4.8 0.00 0.00 0.00 69 1009.5
20260509151925 15 100 0.0 3.2 0.00 0.00 0.00 68 1009.6
20260509151826 16 152 0.0 4.8 0.00 0.00 0.00 68 1009.6
20260509151725 16 120 0.0 6.4 0.00 0.00 0.00 68 1009.5
20260509150725 16 265 1.6 8.0 0.00 0.00 0.00 68 1009.6
20260509145725 16 271 6.4 11.3 0.00 0.00 0.00 68 1009.6
20260509144725 16 220 1.6 6.4 0.00 0.00 0.00 70 1009.5
20260509142824 15 210 3.2 9.7 0.00 0.00 0.00 72 1009.9
20260509141824 15 270 3.2 4.8 0.00 0.00 0.00 74 1009.9
20260509140826 14 266 6.4 11.3 0.00 0.00 0.00 74 1009.9
20260509135925 14 300 1.6 3.2 0.00 0.00 0.00 74 1010.0
20260509133925 13 237 3.2 11.3 0.00 0.00 0.00 76 1010.2
20260509132927 13 255 1.6 4.8 0.00 0.00 0.00 76 1010.3
20260509131924 13 256 3.2 9.7 0.00 0.00 0.00 77 1010.4
20260509130023 12 162 0.0 3.2 0.00 0.00 0.00 77 1010.5
20260509125025 12 180 0.0 0.0 0.00 0.00 0.00 78 1010.4
20260509124027 11 160 0.0 4.8 0.00 0.00 0.00 79 1010.6
20260509123124 11 135 0.0 0.0 0.00 0.00 0.00 80 1010.4
20260509122125 11 157 0.0 1.6 0.00 0.00 0.00 80 1010.6
20260509121125 10 90 0.0 0.0 0.00 0.00 0.00 81 1010.6
20260509120125 10 225 0.0 0.0 0.00 0.00 0.00 82 1010.5
20260509114225 8 135 0.0 0.0 0.00 0.00 0.00 85 1010.3
20260509113225 8 135 0.0 0.0 0.00 0.00 0.00 87 1010.3
20260509112325 8 135 0.0 0.0 0.00 0.00 0.00 87 1010.6
20260509111324 7 157 0.0 0.0 0.00 0.00 0.00 89 1010.5
20260509110324 7 157 0.0 0.0 0.00 0.00 0.00 89 1010.5
20260509103424 6 157 0.0 0.0 0.00 0.00 0.00 87 1010.3
20260509102524 6 157 0.0 0.0 0.00 0.00 0.00 88 1010.1
20260509100524 5 157 0.0 0.0 0.00 0.00 0.00 85 1010.0
20260509095525 5 157 0.0 0.0 0.00 0.00 0.00 85 1010.0
20260509094525 5 157 0.0 0.0 0.00 0.00 0.00 85 1009.9
20260509090625 5 90 0.0 0.0 0.00 0.00 0.00 84 1009.9
20260509085724 5 90 0.0 0.0 0.00 0.00 0.00 82 1010.1
20260509083741 5 90 0.0 0.0 0.00 0.00 0.00 83 1010.2
20260509082725 5 90 0.0 0.0 0.00 0.00 0.00 85 1010.3
20260509081725 5 90 0.0 0.0 0.00 0.00 0.00 82 1010.3
20260509080725 5 135 0.0 0.0 0.00 0.00 0.00 88 1010.3
20260509075823 4 180 0.0 0.0 0.00 0.00 0.00 90 1010.4
20260509073826 4 180 0.0 0.0 0.00 0.00 0.00 89 1010.7
20260509072923 4 180 0.0 0.0 0.00 0.00 0.00 89 1010.6
20260509071925 4 180 0.0 0.0 0.00 0.00 0.00 87 1010.7
20260509065925 4 180 0.0 0.0 0.00 0.00 0.00 87 1010.8
20260509064925 4 180 0.0 0.0 0.00 0.00 0.00 87 1010.9
20260509064023 4 180 0.0 0.0 0.00 0.00 0.00 86 1011.2
20260509063025 5 180 0.0 0.0 0.00 0.00 0.00 87 1011.3
20260509062026 5 180 0.0 0.0 0.00 0.00 0.00 85 1011.4
20260509061124 5 180 0.0 0.0 0.00 0.00 0.00 87 1011.5
20260509060223 5 180 0.0 0.0 0.00 0.00 0.00 88 1011.5
20260509055227 5 180 0.0 0.0 0.00 0.00 0.00 87 1011.6
20260509054325 5 180 0.0 0.0 0.00 0.00 0.00 85 1011.7
20260509053325 5 180 0.0 0.0 0.00 0.00 0.00 86 1011.7
20260509051327 4 247 0.0 0.0 0.00 0.00 0.00 90 1012.0
20260509045324 5 247 0.0 0.0 0.00 0.00 0.00 91 1012.1
20260509044423 5 247 0.0 0.0 0.00 0.00 0.00 90 1012.2
20260509042425 5 247 0.0 0.0 0.00 0.00 0.00 92 1012.4
20260509041424 4 247 0.0 0.0 0.00 0.00 0.00 93 1012.4
20260509040424 4 247 0.0 0.0 0.00 0.00 0.00 91 1012.6
20260509035511 4 247 0.0 0.0 0.00 0.00 0.00 92 1012.6
20260509034507 5 247 0.0 0.0 0.00 0.00 0.00 93 1012.8
20260509033509 5 247 0.0 0.0 0.00 0.00 0.00 90 1012.7
20260509032509 5 247 0.0 0.0 0.00 0.00 0.00 90 1012.9
20260509032407 5 247 0.0 0.0 0.00 0.00 0.00 90 1012.8
20260509031409 5 247 0.0 0.0 0.00 0.00 0.00 90 1013.0
20260509030409 5 247 0.0 0.0 0.00 0.00 0.00 90 1012.9
20260509025424 5 247 0.0 0.0 0.00 0.00 0.00 87 1013.0
20260509024507 5 247 0.0 0.0 0.00 0.00 0.00 86 1013.0
20260509022510 6 247 0.0 0.0 0.00 0.00 0.00 83 1013.0
20260509021607 6 247 0.0 0.0 0.00 0.00 0.00 81 1013.0
20260509020609 6 247 0.0 0.0 0.00 0.00 0.00 79 1013.0
20260509015707 6 247 0.0 0.0 0.00 0.00 0.00 80 1013.0
20260509014709 6 247 0.0 0.0 0.00 0.00 0.00 81 1013.0
20260509013710 6 247 0.0 0.0 0.00 0.00 0.00 76 1013.2
20260509012809 7 247 0.0 0.0 0.00 0.00 0.00 77 1013.2
20260509011823 7 247 0.0 0.0 0.00 0.00 0.00 76 1013.0
20260509011708 7 247 0.0 0.0 0.00 0.00 0.00 77 1013.1
20260509011609 7 247 0.0 0.0 0.00 0.00 0.00 76 1013.2
20260509010707 7 247 0.0 0.0 0.00 0.00 0.00 75 1013.2
20260509005708 8 247 0.0 0.0 0.00 0.00 0.00 76 1013.1
20260509004724 8 247 0.0 0.0 0.00 0.00 0.00 71 1013.0
20260509003810 9 247 0.0 0.0 0.00 0.03 0.00 72 1012.9
20260509002810 10 247 0.0 0.0 0.00 0.03 0.00 64 1012.9
20260509001808 11 247 0.0 0.0 0.00 0.03 0.00 60 1012.8
20260509000809 12 247 0.0 0.0 0.00 0.03 0.00 53 1012.8
20260508235808 12 247 0.0 0.0 0.00 0.03 0.00 51 1012.8
20260508234808 13 247 0.0 0.0 0.00 0.03 0.00 50 1012.8
20260508233808 13 247 0.0 3.2 0.00 0.03 0.00 47 1012.8
20260508232807 13 270 0.0 0.0 0.00 0.03 0.00 47 1012.8
20260508230810 13 285 1.6 3.2 0.00 0.03 0.00 43 1012.6
20260508225808 13 250 0.0 0.0 0.00 0.03 0.00 44 1012.8
20260508225725 13 180 0.0 0.0 0.00 0.03 0.00 44 1012.8
20260508224709 13 270 0.0 0.0 0.00 0.03 0.00 43 1012.8
20260508223808 13 107 3.2 6.4 0.00 0.03 0.00 41 1012.6
20260508221809 14 135 0.0 0.0 0.00 0.03 0.00 39 1012.8
20260508220809 14 157 0.0 0.0 0.00 0.03 0.00 38 1012.8
20260508215823 15 148 0.0 0.0 0.00 0.03 0.00 37 1012.9
20260508214808 13 360 0.0 0.0 0.00 0.03 0.00 39 1013.0
20260508213809 13 67 1.6 4.8 0.00 0.03 0.00 44 1012.9
20260508212808 13 45 0.0 0.0 0.00 0.03 0.00 44 1012.9
20260508211906 13 45 0.0 3.2 0.00 0.03 0.00 44 1013.0
20260508210908 13 45 0.0 1.6 0.00 0.03 0.00 43 1012.9
20260508210008 13 22 0.0 0.0 0.00 0.03 0.00 46 1013.0
20260508205009 13 45 0.0 4.8 0.00 0.03 0.00 41 1013.1
20260508204007 14 270 8.0 11.3 0.00 0.03 0.00 39 1013.2
20260508203010 14 279 0.0 4.8 0.00 0.03 0.00 39 1013.2
20260508202107 13 90 0.0 1.6 0.00 0.03 0.00 38 1013.3
20260508201108 13 203 0.0 3.2 0.00 0.03 0.00 38 1013.4
20260508200207 15 310 16.1 19.3 0.00 0.03 0.00 38 1013.2
20260508195208 14 35 0.0 3.2 0.00 0.03 0.00 37 1013.4
20260508193207 13 97 4.8 8.0 0.00 0.03 0.00 42 1013.9
20260508192207 13 314 4.8 9.7 0.00 0.03 0.00 45 1014.1
20260508191210 13 9 0.0 1.6 0.00 0.03 0.00 49 1014.5
20260508190206 13 277 3.2 8.0 0.00 0.03 0.00 51 1014.5
20260508190107 13 323 3.2 8.0 0.00 0.03 0.00 52 1014.6
20260508185108 13 17 0.0 3.2 0.00 0.03 0.00 56 1014.6
20260508184208 13 324 3.2 8.0 0.00 0.03 0.00 59 1014.7
20260508183208 13 15 0.0 1.6 0.00 0.03 0.00 62 1014.6
20260508182307 13 18 0.0 4.8 0.00 0.03 0.00 60 1014.5
20260508180406 13 334 0.0 3.2 0.00 0.03 0.00 60 1014.6
20260508175506 13 300 4.8 6.4 0.00 0.03 0.00 59 1014.6
20260508174507 12 356 3.2 4.8 0.00 0.03 0.00 57 1014.6
20260508173508 12 327 1.6 8.0 0.00 0.03 0.00 53 1014.8
20260508172607 11 306 3.2 6.4 0.00 0.03 0.00 54 1014.7
20260508171609 11 272 16.1 25.7 0.00 0.03 0.00 59 1014.8
20260508170707 11 284 1.6 6.4 0.00 0.03 0.00 60 1014.7
20260508165708 11 258 14.5 20.9 0.00 0.03 0.00 61 1014.7
20260508162708 11 195 4.8 9.7 0.00 0.03 0.00 67 1015.3